User: anonymous
Location: Brno
(49.2000°N, 16.6330°E)
Time: 08:45:00
(UTC+02:00)
Language:

Cosmos 2227 - Orbit

View from above orbital plane
View from above orbital plane
View from above satellite
View from above satellite

Ground track
Ground track

The orbit data is extracted from the following two-line orbital elements,

1 22284U 92093A   14244.11513079  .00000373  00000-0  22464-3 0  9548
2 22284 070.9786 213.7685 0020187 275.8488 156.8572 14.13170716118532
Epoch (UTC): 01 September 2014 02:45:47
Eccentricity: 0.0020187
inclination: 70.9786°
perigee height: 834 km
apogee height: 863 km
right ascension of ascending node: 213.7685°
argument of perigee: 275.8488°
revolutions per day: 14.13170716
mean anomaly at epoch: 156.8572°
orbit number at epoch: 11853

The dashed part of the orbit path shows where the satellite is in the earth's shadow,  

DLR